Defiance, OH

6:07 PM EDT on April 23, 2017 (GMT -0400)
Defiance Memorial

Weather History for KDFI - July, 2013

Change the Weather History Date:

Wednesday, July 3, 2013

  Actual Average Record
Temperature  
Mean Temperature 73 °F -  
Max Temperature 82 °F 83 °F 99 °F (2012)
Min Temperature 64 °F 59 °F 47 °F (1945)
Cooling Degree Days 8    
Growing Degree Days 23 (Base 50)    
Moisture  
Dew Point 64 °F    
Average Humidity 82    
Maximum Humidity 94    
Minimum Humidity 49    
Precipitation  
Precipitation 0.19 in - - ()
Sea Level Pressure  
Sea Level Pressure 30.07 in    
Wind  
Wind Speed 4 mph (SE)    
Max Wind Speed 14 mph    
Max Gust Speed 23 mph    
Visibility 5 miles    
Events Fog , Rain    
Averages and records for this station are not official NWS values.
T = Trace of Precipitation, MM = Missing Value Source: NWS Daily Summary

Daily Weather History Graph

Daily Weather History Graph

Search for Another Location

Airport or City:

Trip Planner

Search our weather history database for the weather conditions in past years. The results will help you decide how hot, cold, wet, or windy it might be!

Date:

Astronomy

Jul. 03, 2013 Rise Set
Actual Time 6:09 AM EDT 9:14 PM EDT
Civil Twilight 5:35 AM EDT 9:48 PM EDT
Nautical Twilight 4:52 AM EDT 10:30 PM EDT
Astronomical Twilight 4:01 AM EDT 11:21 PM EDT
Moon 2:48 AM EDT (7/3) 5:23 PM EDT (7/3)
Length of Visible Light 16h 12m
Length of Day
15h 05m
Waning Crescent, 18% of the Moon is Illuminated
Jul 3
Waning Crescent
Jul 8
New
Jul 15
First Quarter
Jul 22
Full
Jul 29
Last Quarter

Hourly Weather History & Observations

Time (EDT) Temp. Heat Index Dew Point Humidity Pressure Visibility Wind Dir Wind Speed Gust Speed Precip Events Conditions
12:53 AM 64.9 °F - 63.0 °F 93% 30.04 in 6.0 mi NE 4.6 mph - N/A   Partly Cloudy
1:53 AM 64.9 °F - 63.0 °F 93% 30.05 in 5.0 mi NE 3.5 mph - N/A   Clear
2:21 AM 64.4 °F - 62.6 °F 94% 30.04 in 4.0 mi ENE 4.6 mph - N/A   Scattered Clouds
2:31 AM 64.4 °F - 62.6 °F 94% 30.04 in 4.0 mi ENE 4.6 mph - N/A   Mostly Cloudy
2:53 AM 64.9 °F - 63.0 °F 93% 30.04 in 4.0 mi Calm Calm - N/A   Mostly Cloudy
3:53 AM 64.9 °F - 63.0 °F 93% 30.03 in 5.0 mi ESE 3.5 mph - 0.00 in   Overcast
4:17 AM 64.4 °F - 62.6 °F 94% 30.04 in 4.0 mi ESE 3.5 mph - N/A   Overcast
4:44 AM 64.4 °F - 62.6 °F 94% 30.04 in 3.0 mi ESE 5.8 mph - N/A   Overcast
4:53 AM 64.9 °F - 63.0 °F 93% 30.04 in 2.0 mi ESE 5.8 mph - N/A   Overcast
5:00 AM 64.4 °F - 62.6 °F 94% 30.04 in 1.2 mi SE 5.8 mph - N/A   Overcast
5:13 AM 64.4 °F - 62.6 °F 94% 30.05 in 0.5 mi SE 4.6 mph - N/A Fog Fog
5:53 AM 64.9 °F - 63.0 °F 93% 30.04 in 0.5 mi SE 4.6 mph - N/A Fog Fog
6:53 AM 64.9 °F - 63.0 °F 93% 30.06 in 0.2 mi Calm Calm - N/A Fog Fog
7:53 AM 66.0 °F - 64.0 °F 93% 30.08 in 0.8 mi SE 3.5 mph - N/A   Overcast
8:12 AM 66.2 °F - 64.4 °F 94% 30.09 in 1.2 mi Calm Calm - N/A   Overcast
8:39 AM 66.2 °F - 64.4 °F 94% 30.10 in 2.0 mi SE 3.5 mph - N/A   Overcast
8:53 AM 66.9 °F - 64.0 °F 90% 30.10 in 3.0 mi Calm Calm - N/A   Overcast
9:36 AM 69.8 °F - 64.4 °F 83% 30.11 in 5.0 mi Variable 3.5 mph - N/A   Mostly Cloudy
9:53 AM 72.0 °F - 64.9 °F 78% 30.11 in 5.0 mi South 5.8 mph - N/A   Haze
10:16 AM 71.6 °F - 66.2 °F 83% 30.11 in 6.0 mi South 4.6 mph - N/A   Haze
10:53 AM 73.9 °F - 66.9 °F 79% 30.11 in 9.0 mi SSW 5.8 mph - N/A   Partly Cloudy
11:53 AM 78.1 °F - 64.9 °F 64% 30.10 in 10.0 mi SSE 6.9 mph - N/A   Mostly Cloudy
12:53 PM 79.0 °F - 64.0 °F 60% 30.09 in 10.0 mi Variable 4.6 mph - N/A   Mostly Cloudy
1:53 PM 81.0 °F 82.2 °F 63.0 °F 54% 30.08 in 10.0 mi South 8.1 mph 18.4 mph N/A   Mostly Cloudy
2:53 PM 81.0 °F 82.5 °F 64.0 °F 56% 30.08 in 10.0 mi South 9.2 mph - N/A   Mostly Cloudy
3:53 PM 82.0 °F 83.0 °F 62.1 °F 51% 30.07 in 10.0 mi South 10.4 mph - N/A   Scattered Clouds
4:53 PM 82.9 °F 83.7 °F 62.1 °F 49% 30.06 in 10.0 mi South 10.4 mph 17.3 mph N/A   Clear
5:53 PM 81.0 °F 81.9 °F 62.1 °F 52% 30.06 in 10.0 mi South 6.9 mph - N/A   Scattered Clouds
6:53 PM 80.1 °F 81.5 °F 63.0 °F 56% 30.05 in 10.0 mi South 6.9 mph - N/A   Scattered Clouds
7:53 PM 73.9 °F - 66.0 °F 76% 30.06 in 10.0 mi South 4.6 mph - 0.03 in   Overcast
8:03 PM 73.4 °F - 66.2 °F 78% 30.07 in 2.0 mi SW 8.1 mph 16.1 mph 0.06 in Rain Heavy Rain
8:10 PM 73.4 °F - 66.2 °F 78% 30.07 in 3.0 mi Calm Calm - 0.06 in Rain Light Rain
8:33 PM 71.6 °F - 64.4 °F 78% 30.08 in 2.0 mi South 13.8 mph 23.0 mph 0.13 in Rain Heavy Rain
8:47 PM 71.6 °F - 66.2 °F 83% 30.08 in 3.0 mi SE 4.6 mph - 0.16 in Rain Rain
8:48 PM 71.1 °F - 66.0 °F 84% 30.07 in 3.0 mi SE 3.5 mph - 0.16 in Rain Light Rain
9:53 PM 69.1 °F - 66.0 °F 90% 30.07 in 4.0 mi Calm Calm - 0.00 in   Clear
10:53 PM 69.1 °F - 66.0 °F 90% 30.09 in 6.0 mi Calm Calm - N/A   Mostly Cloudy
11:53 PM 69.1 °F - 66.0 °F 90% 30.09 in 4.0 mi Calm Calm - N/A   Mostly Cloudy